Weather History for Drummond Island, MI

Change the Weather History Date:

Wednesday, December 12, 2012

  Actual Average (KCIU) Record (KCIU)
Temperature  
Mean Temperature 28 °F -  
Max Temperature 37 °F 31 °F 44 °F (1998)
Min Temperature 20 °F 10 °F -15 °F (1988)
Degree Days  
Heating Degree Days 36    
Moisture  
Dew Point 21 °F    
Average Humidity 78    
Maximum Humidity 95    
Minimum Humidity 65    
Precipitation  
Precipitation 0.00 in - - ()
Sea Level Pressure  
Sea Level Pressure 30.13 in    
Wind  
Wind Speed 5 mph (WSW)    
Max Wind Speed 12 mph    
Max Gust Speed 18 mph    
Visibility 10 miles    
Events Snow    
Averages and records for this station are not official NWS values.
T = Trace of Precipitation, MM = Missing Value Source: NWS Daily Summary

Daily Weather History Graph

Daily Weather History Graph

Search for Another Location

Airport:

Trip Planner

Search our weather history database for the weather conditions in past years. The results will help you decide how hot, cold, wet, or windy it might be!

Date:

Astronomy

Dec. 12, 2012 Rise Set
Actual Time 8:08 AM EST 4:49 PM EST
Civil Twilight 7:33 AM EST 5:24 PM EST
Nautical Twilight 6:55 AM EST 6:02 PM EST
Astronomical Twilight 6:19 AM EST 6:38 PM EST
Moon 7:10 AM EST (12/12) 4:26 PM EST (12/12)
Length of Visible Light 9h 50m
Length of Day
8h 41m
Waning Crescent, 1% of the Moon is Illuminated
Dec 12
Waning Crescent
Dec 13
New
Dec 20
First Quarter
Dec 28
Full
Jan 4
Last Quarter

Hourly Weather History & Observations

Time (EST) Temp. Windchill Dew Point Humidity Pressure Visibility Wind Dir Wind Speed Gust Speed Precip Events Conditions
12:15 AM 29.3 °F 23.2 °F 27.5 °F 93% 29.92 in 5.0 mi WSW 5.8 mph - N/A Snow Light Snow
12:35 AM 29.7 °F 22.0 °F 26.6 °F 88% 29.93 in 1.5 mi West 8.1 mph 18.4 mph N/A Snow Light Snow
12:54 AM 28.4 °F 23.3 °F 26.8 °F 94% 29.93 in 2.5 mi WSW 4.6 mph - N/A Snow Light Snow
1:15 AM 28.4 °F 21.2 °F 23.9 °F 83% 29.95 in 10.0 mi WSW 6.9 mph - N/A   Overcast
1:34 AM 28.0 °F 20.8 °F 23.9 °F 84% 29.95 in 10.0 mi West 6.9 mph - N/A   Overcast
1:55 AM 27.5 °F 18.0 °F 22.8 °F 83% 29.96 in 10.0 mi West 10.4 mph 18.4 mph N/A   Overcast
2:15 AM 26.4 °F 19.8 °F 21.2 °F 81% 29.97 in 10.0 mi West 5.8 mph - N/A   Overcast
2:34 AM 26.2 °F 18.6 °F 21.0 °F 81% 29.98 in 10.0 mi WNW 6.9 mph - N/A   Overcast
2:55 AM 25.7 °F 20.1 °F 19.8 °F 78% 30.00 in 10.0 mi West 4.6 mph - N/A   Overcast
3:14 AM 25.5 °F 18.7 °F 19.4 °F 78% 30.01 in 10.0 mi West 5.8 mph - N/A   Overcast
3:35 AM 25.2 °F 17.3 °F 19.0 °F 78% 30.01 in 10.0 mi WNW 6.9 mph - N/A   Overcast
3:55 AM 24.8 °F - 18.7 °F 78% 30.02 in 10.0 mi Calm Calm - N/A   Overcast
4:15 AM 24.8 °F 16.9 °F 18.1 °F 76% 30.02 in 10.0 mi West 6.9 mph - N/A   Overcast
4:35 AM 24.3 °F - 17.6 °F 76% 30.03 in 10.0 mi Calm Calm - N/A   Mostly Cloudy
4:55 AM 23.4 °F 17.4 °F 17.2 °F 77% 30.04 in 10.0 mi WNW 4.6 mph - N/A   Scattered Clouds
5:15 AM 23.5 °F 14.5 °F 17.1 °F 76% 30.05 in 10.0 mi West 8.1 mph - N/A   Mostly Cloudy
5:35 AM 23.7 °F 16.6 °F 16.3 °F 73% 30.05 in 10.0 mi West 5.8 mph - N/A   Overcast
5:54 AM 23.5 °F 19.1 °F 16.3 °F 74% 30.06 in 10.0 mi West 3.5 mph - N/A   Overcast
6:15 AM 22.8 °F 18.2 °F 16.3 °F 76% 30.07 in 10.0 mi West 3.5 mph - N/A   Mostly Cloudy
6:35 AM 22.8 °F 15.5 °F 16.7 °F 77% 30.08 in 10.0 mi West 5.8 mph - N/A   Mostly Cloudy
6:54 AM 23.0 °F 17.0 °F 17.1 °F 78% 30.09 in 10.0 mi West 4.6 mph - N/A   Overcast
7:15 AM 23.0 °F 18.4 °F 16.9 °F 77% 30.10 in 10.0 mi West 3.5 mph - N/A   Overcast
7:35 AM 23.5 °F 17.6 °F 16.9 °F 76% 30.11 in 10.0 mi WSW 4.6 mph - N/A   Overcast
7:54 AM 21.9 °F 15.7 °F 15.6 °F 77% 30.12 in 10.0 mi WSW 4.6 mph - N/A   Scattered Clouds
8:15 AM 21.7 °F 17.0 °F 16.0 °F 78% 30.13 in 10.0 mi West 3.5 mph - N/A   Clear
8:35 AM 22.1 °F - 15.6 °F 76% 30.13 in 10.0 mi Calm Calm - N/A   Clear
8:54 AM 22.3 °F 16.1 °F 15.1 °F 74% 30.14 in 10.0 mi West 4.6 mph - N/A   Clear
9:15 AM 23.2 °F 17.2 °F 15.4 °F 72% 30.14 in 10.0 mi West 4.6 mph - N/A   Clear
9:35 AM 24.1 °F 17.0 °F 16.2 °F 72% 30.15 in 10.0 mi West 5.8 mph - N/A   Clear
9:55 AM 24.8 °F 17.9 °F 16.5 °F 71% 30.16 in 10.0 mi West 5.8 mph - N/A   Clear
10:15 AM 25.2 °F 19.5 °F 16.7 °F 70% 30.18 in 10.0 mi WNW 4.6 mph - N/A   Clear
10:34 AM 26.4 °F 18.0 °F 17.6 °F 69% 30.18 in 10.0 mi West 8.1 mph - N/A   Clear
10:55 AM 27.1 °F 23.2 °F 18.0 °F 68% 30.20 in 10.0 mi West 3.5 mph - N/A   Clear
11:15 AM 27.7 °F - 18.3 °F 68% 30.20 in 10.0 mi Calm Calm - N/A   Clear
11:35 AM 28.2 °F 23.1 °F 18.5 °F 67% 30.20 in 10.0 mi West 4.6 mph - N/A   Clear
11:55 AM 29.1 °F 22.1 °F 18.7 °F 65% 30.20 in 10.0 mi West 6.9 mph - N/A   Clear
12:15 PM 28.9 °F 21.1 °F 18.9 °F 66% 30.20 in 10.0 mi West 8.1 mph - N/A   Clear
12:35 PM 29.3 °F 24.3 °F 19.4 °F 67% 30.20 in 10.0 mi West 4.6 mph - N/A   Clear
12:55 PM 29.1 °F 21.3 °F 19.4 °F 67% 30.20 in 10.0 mi West 8.1 mph - N/A   Clear
1:14 PM 28.9 °F 21.9 °F 19.6 °F 68% 30.20 in 10.0 mi WSW 6.9 mph - N/A   Clear
1:35 PM 29.3 °F 22.3 °F 20.5 °F 70% 30.20 in 10.0 mi SW 6.9 mph - N/A   Clear
1:55 PM 29.3 °F 22.3 °F 21.0 °F 71% 30.20 in 10.0 mi SW 6.9 mph - N/A   Scattered Clouds
2:14 PM 29.1 °F 23.0 °F 21.2 °F 72% 30.21 in 10.0 mi WSW 5.8 mph - N/A   Clear
2:35 PM 30.0 °F 25.2 °F 22.1 °F 72% 30.21 in 10.0 mi SW 4.6 mph - N/A   Scattered Clouds
2:55 PM 29.8 °F 26.3 °F 22.5 °F 74% 30.21 in 10.0 mi SW 3.5 mph - N/A   Scattered Clouds
3:15 PM 29.7 °F - 22.8 °F 76% 30.20 in 10.0 mi Calm Calm - N/A   Scattered Clouds
3:35 PM 29.3 °F 24.3 °F 23.0 °F 77% 30.21 in 10.0 mi SSW 4.6 mph - N/A   Scattered Clouds
3:55 PM 29.3 °F 25.6 °F 23.4 °F 78% 30.22 in 10.0 mi SSW 3.5 mph - N/A   Clear
4:15 PM 28.8 °F - 23.4 °F 80% 30.23 in 10.0 mi Calm Calm - N/A   Clear
4:35 PM 27.5 °F 23.6 °F 23.0 °F 83% 30.23 in 10.0 mi South 3.5 mph - N/A   Clear
4:55 PM 27.1 °F - 22.6 °F 83% 30.23 in 10.0 mi Calm Calm - N/A   Scattered Clouds
5:15 PM 24.6 °F - 21.0 °F 86% 30.23 in 10.0 mi Calm Calm - N/A   Scattered Clouds
5:34 PM 24.6 °F - 21.4 °F 87% 30.22 in 10.0 mi Calm Calm - N/A   Clear
5:55 PM 22.6 °F - 20.1 °F 90% 30.22 in 10.0 mi Calm Calm - N/A   Clear
6:15 PM 22.1 °F - 20.3 °F 93% 30.21 in 10.0 mi Calm Calm - N/A   Clear
6:35 PM 20.8 °F 16.0 °F 19.6 °F 95% 30.21 in 10.0 mi SSE 3.5 mph - N/A   Clear
7:14 PM 26.1 °F 20.5 °F 22.3 °F 86% 30.20 in 10.0 mi SSE 4.6 mph - N/A   Clear
7:35 PM 30.2 °F 25.4 °F 24.1 °F 78% 30.20 in 10.0 mi SSE 4.6 mph - N/A   Clear
7:55 PM 30.9 °F 25.2 °F 24.8 °F 78% 30.20 in 10.0 mi South 5.8 mph - N/A   Clear
8:14 PM 31.8 °F 25.4 °F 26.1 °F 79% 30.19 in 10.0 mi South 6.9 mph - N/A   Clear
8:35 PM 32.5 °F 25.5 °F 27.1 °F 80% 30.19 in 10.0 mi South 8.1 mph - N/A   Clear
8:55 PM 33.1 °F 26.1 °F 27.9 °F 81% 30.18 in 10.0 mi SSE 8.1 mph - N/A   Clear
9:14 PM 33.8 °F 26.4 °F 28.4 °F 81% 30.18 in 10.0 mi South 9.2 mph - N/A   Scattered Clouds
9:35 PM 34.9 °F 27.7 °F 29.8 °F 82% 30.17 in 10.0 mi SSE 9.2 mph - N/A   Overcast
9:55 PM 35.6 °F 29.9 °F 30.2 °F 81% 30.17 in 10.0 mi South 6.9 mph - N/A   Overcast
10:35 PM 36.0 °F 30.3 °F 30.9 °F 82% 30.16 in 10.0 mi South 6.9 mph - N/A   Overcast
10:55 PM 37.2 °F 30.6 °F 30.7 °F 77% 30.15 in 10.0 mi South 9.2 mph 17.3 mph N/A   Overcast
11:15 PM 37.4 °F 30.8 °F 30.2 °F 75% 30.15 in 10.0 mi South 9.2 mph 17.3 mph N/A   Overcast
11:35 PM 37.4 °F 29.8 °F 30.2 °F 75% 30.15 in 10.0 mi South 11.5 mph 18.4 mph N/A   Overcast
11:54 PM 37.4 °F 29.8 °F 30.0 °F 75% 30.15 in 10.0 mi South 11.5 mph 16.1 mph N/A   Overcast